| time (UTC) | temp F | wind direction | speed knots | gust knots | rain 1hr in | rain 24hr in | rain mn in | humidity % | barometer mb |
| 20260507221535 | 72 | 289 | 13.9 | 24.3 | 0.00 | 0.00 | 0.00 | 26 | 1016.1 |
| 20260507220036 | 72 | 290 | 13.9 | 25.2 | 0.00 | 0.00 | 0.00 | 27 | 1016.3 |
| 20260507214533 | 71 | 293 | 13.0 | 24.3 | 0.00 | 0.00 | 0.00 | 28 | 1016.5 |
| 20260507213152 | 71 | 292 | 13.9 | 27.8 | 0.00 | 0.00 | 0.00 | 30 | 1016.7 |
| 20260507210035 | 70 | 295 | 14.8 | 24.3 | 0.00 | 0.00 | 0.00 | 30 | 1016.8 |
| 20260507204534 | 70 | 293 | 14.8 | 26.1 | 0.00 | 0.00 | 0.00 | 29 | 1016.9 |
| 20260507203035 | 70 | 293 | 14.8 | 30.4 | 0.00 | 0.00 | 0.00 | 29 | 1016.9 |
| 20260507201532 | 70 | 292 | 13.9 | 23.5 | 0.00 | 0.00 | 0.00 | 31 | 1017.4 |
| 20260507200110 | 69 | 291 | 12.2 | 21.7 | 0.00 | 0.00 | 0.00 | 33 | 1017.6 |
| 20260507194608 | 69 | 294 | 13.9 | 26.1 | 0.00 | 0.00 | 0.00 | 34 | 1017.6 |
| 20260507193037 | 68 | 296 | 13.9 | 24.3 | 0.00 | 0.00 | 0.00 | 35 | 1017.8 |
| 20260507191535 | 67 | 296 | 12.2 | 21.7 | 0.00 | 0.00 | 0.00 | 37 | 1018.3 |
| 20260507190035 | 67 | 294 | 10.4 | 21.7 | 0.00 | 0.00 | 0.00 | 39 | 1018.7 |
| 20260507184620 | 66 | 296 | 11.3 | 21.7 | 0.00 | 0.00 | 0.00 | 41 | 1018.8 |
| 20260507184610 | 65 | 303 | 10.4 | 20.9 | 0.00 | 0.00 | 0.00 | 42 | 1019.0 |
| 20260507181535 | 64 | 298 | 13.0 | 26.1 | 0.00 | 0.00 | 0.00 | 45 | 1018.8 |
| 20260507180033 | 63 | 296 | 11.3 | 23.5 | 0.00 | 0.00 | 0.00 | 47 | 1018.9 |
| 20260507174534 | 63 | 285 | 11.3 | 24.3 | 0.00 | 0.00 | 0.00 | 48 | 1019.2 |
| 20260507173029 | 62 | 285 | 9.6 | 20.9 | 0.00 | 0.00 | 0.00 | 50 | 1019.4 |
| 20260507170109 | 61 | 302 | 11.3 | 20.0 | 0.00 | 0.00 | 0.00 | 53 | 1019.7 |
| 20260507164534 | 60 | 300 | 11.3 | 21.7 | 0.00 | 0.00 | 0.00 | 55 | 1019.8 |
| 20260507163032 | 60 | 297 | 9.6 | 18.2 | 0.00 | 0.00 | 0.00 | 57 | 1020.0 |
| 20260507161533 | 59 | 291 | 9.6 | 20.9 | 0.00 | 0.00 | 0.00 | 59 | 1019.8 |
| 20260507160036 | 59 | 287 | 9.6 | 21.7 | 0.00 | 0.00 | 0.00 | 60 | 1020.0 |
| 20260507154534 | 59 | 287 | 12.2 | 23.5 | 0.00 | 0.00 | 0.00 | 61 | 1019.9 |
| 20260507150046 | 57 | 290 | 13.0 | 23.5 | 0.00 | 0.00 | 0.00 | 66 | 1019.9 |
| 20260507144534 | 56 | 295 | 12.2 | 20.9 | 0.00 | 0.00 | 0.00 | 68 | 1019.9 |
| 20260507143031 | 56 | 300 | 12.2 | 22.6 | 0.00 | 0.00 | 0.00 | 69 | 1019.9 |
| 20260507141535 | 56 | 301 | 10.4 | 20.9 | 0.00 | 0.00 | 0.00 | 70 | 1020.1 |
| 20260507134535 | 55 | 294 | 9.6 | 20.0 | 0.00 | 0.00 | 0.00 | 72 | 1020.1 |
| 20260507133029 | 55 | 295 | 8.7 | 20.0 | 0.00 | 0.00 | 0.00 | 73 | 1020.1 |
| 20260507131536 | 55 | 293 | 8.7 | 16.5 | 0.00 | 0.00 | 0.00 | 72 | 1020.1 |
| 20260507124535 | 55 | 301 | 7.8 | 14.8 | 0.00 | 0.00 | 0.00 | 71 | 1019.9 |
| 20260507123111 | 56 | 299 | 7.0 | 15.6 | 0.00 | 0.00 | 0.00 | 70 | 1019.9 |
| 20260507121532 | 56 | 292 | 6.1 | 13.9 | 0.00 | 0.00 | 0.00 | 70 | 1019.9 |
| 20260507120034 | 56 | 297 | 7.8 | 15.6 | 0.00 | 0.00 | 0.00 | 70 | 1019.7 |
| 20260507114534 | 56 | 295 | 8.7 | 18.2 | 0.00 | 0.00 | 0.00 | 70 | 1019.5 |
| 20260507113033 | 57 | 295 | 9.6 | 19.1 | 0.00 | 0.00 | 0.00 | 70 | 1019.3 |
| 20260507111652 | 57 | 296 | 7.8 | 18.2 | 0.00 | 0.00 | 0.00 | 70 | 1019.2 |
| 20260507104610 | 57 | 295 | 10.4 | 22.6 | 0.00 | 0.00 | 0.00 | 70 | 1018.7 |
| 20260507103035 | 57 | 289 | 9.6 | 20.9 | 0.00 | 0.00 | 0.00 | 71 | 1018.7 |
| 20260507101536 | 58 | 282 | 10.4 | 20.9 | 0.00 | 0.00 | 0.00 | 70 | 1018.6 |
| 20260507094608 | 59 | 283 | 9.6 | 18.2 | 0.00 | 0.00 | 0.00 | 69 | 1018.7 |
| 20260507093110 | 59 | 282 | 9.6 | 18.2 | 0.00 | 0.00 | 0.00 | 70 | 1018.8 |
| 20260507091532 | 59 | 288 | 8.7 | 16.5 | 0.00 | 0.00 | 0.00 | 70 | 1019.0 |
| 20260507090035 | 59 | 294 | 8.7 | 18.2 | 0.00 | 0.00 | 0.00 | 71 | 1019.1 |
| 20260507084535 | 59 | 296 | 7.0 | 16.5 | 0.00 | 0.00 | 0.00 | 71 | 1019.0 |
| 20260507083034 | 59 | 285 | 7.0 | 14.8 | 0.00 | 0.00 | 0.00 | 71 | 1019.0 |
| 20260507081536 | 59 | 280 | 4.3 | 15.6 | 0.00 | 0.00 | 0.00 | 71 | 1019.0 |
| 20260507080034 | 60 | 260 | 6.1 | 17.4 | 0.00 | 0.00 | 0.00 | 71 | 1019.0 |
| 20260507074535 | 60 | 254 | 5.2 | 12.2 | 0.00 | 0.00 | 0.00 | 71 | 1019.0 |
| 20260507073033 | 60 | 244 | 4.3 | 12.2 | 0.00 | 0.00 | 0.00 | 70 | 1018.8 |
| 20260507071536 | 60 | 258 | 7.0 | 19.1 | 0.00 | 0.00 | 0.00 | 70 | 1018.6 |
| 20260507070030 | 61 | 269 | 7.8 | 15.6 | 0.00 | 0.00 | 0.00 | 69 | 1018.5 |
| 20260507064538 | 61 | 269 | 7.0 | 18.2 | 0.00 | 0.00 | 0.00 | 68 | 1018.5 |
| 20260507063032 | 62 | 267 | 7.0 | 17.4 | 0.00 | 0.00 | 0.00 | 68 | 1018.7 |
| 20260507061534 | 62 | 262 | 7.0 | 17.4 | 0.00 | 0.00 | 0.00 | 67 | 1018.8 |
| 20260507060144 | 62 | 261 | 7.0 | 13.9 | 0.00 | 0.00 | 0.00 | 67 | 1018.8 |
| 20260507054533 | 63 | 271 | 7.8 | 19.1 | 0.00 | 0.00 | 0.00 | 66 | 1018.8 |
| 20260507053036 | 63 | 275 | 9.6 | 21.7 | 0.00 | 0.00 | 0.00 | 66 | 1018.8 |
| 20260507051535 | 63 | 266 | 7.8 | 19.1 | 0.00 | 0.00 | 0.00 | 67 | 1019.0 |
| 20260507044534 | 63 | 281 | 8.7 | 19.1 | 0.00 | 0.00 | 0.00 | 65 | 1019.1 |
| 20260507043110 | 64 | 290 | 9.6 | 19.1 | 0.00 | 0.00 | 0.00 | 63 | 1019.2 |
| 20260507041533 | 64 | 296 | 8.7 | 18.2 | 0.00 | 0.00 | 0.00 | 61 | 1019.1 |
| 20260507040152 | 65 | 294 | 7.8 | 17.4 | 0.00 | 0.00 | 0.00 | 59 | 1018.8 |
| 20260507033035 | 66 | 299 | 7.8 | 16.5 | 0.00 | 0.00 | 0.00 | 54 | 1018.6 |
| 20260507030142 | 67 | 294 | 6.1 | 14.8 | 0.00 | 0.00 | 0.00 | 52 | 1018.5 |
| 20260507024536 | 68 | 296 | 7.8 | 18.2 | 0.00 | 0.00 | 0.00 | 51 | 1018.4 |
| 20260507023036 | 68 | 294 | 8.7 | 19.1 | 0.00 | 0.00 | 0.00 | 51 | 1018.2 |
| 20260507021534 | 68 | 293 | 7.8 | 14.8 | 0.00 | 0.00 | 0.00 | 52 | 1018.2 |
| 20260507020037 | 68 | 293 | 9.6 | 20.9 | 0.00 | 0.00 | 0.00 | 51 | 1018.1 |
| 20260507014607 | 68 | 293 | 10.4 | 20.9 | 0.00 | 0.00 | 0.00 | 51 | 1018.0 |
| 20260507011536 | 68 | 291 | 9.6 | 20.0 | 0.00 | 0.00 | 0.00 | 52 | 1017.9 |
| 20260507010036 | 68 | 279 | 8.7 | 19.1 | 0.00 | 0.00 | 0.00 | 52 | 1018.1 |
| 20260507004536 | 69 | 284 | 9.6 | 20.0 | 0.00 | 0.00 | 0.00 | 51 | 1018.0 |
| 20260507003038 | 69 | 289 | 11.3 | 23.5 | 0.00 | 0.00 | 0.00 | 51 | 1017.7 |
| 20260507001537 | 69 | 289 | 11.3 | 21.7 | 0.00 | 0.00 | 0.00 | 51 | 1017.4 |
| 20260506233033 | 70 | 288 | 12.2 | 22.6 | 0.00 | 0.00 | 0.00 | 49 | 1017.1 |
| 20260506231532 | 70 | 286 | 13.0 | 24.3 | 0.00 | 0.00 | 0.00 | 49 | 1016.8 |
| 20260506230039 | 70 | 288 | 13.9 | 25.2 | 0.00 | 0.00 | 0.00 | 49 | 1016.5 |
| 20260506224535 | 70 | 289 | 10.4 | 21.7 | 0.00 | 0.00 | 0.00 | 50 | 1017.0 |